Вернуться в каталог

STARLINK-35470

АктивенСвязьVLEO
NORAD 66430·PAYLOAD·🇺🇸 United States

Запущен Nov 11, 2025 с Cape Canaveral Space Force Station

Loading…

Ближайшие Пролёты (ближайшие 24 часа)

TLE

СвежийSource: CelesTrak SupGP

Эпоха: Sep 15, 2026, 02:42 UTC

1 66430C 25259J   26258.11298611  .00010773  00000+0  39012-3 0  2587
2 66430  43.0007 284.3977 0001319 264.5856  82.9106 15.27577975    17

Отслеживайте STARLINK-35470 в реальном времени с AllMySat

Download on the App Store